Temperature
20 19 20 19 19 19 19 19 19 19 19 19 19 19 19 19 19 19 19 19 18 18 18 18 18 18 18 18 18 18 18 18 17 17 17 17 17 17 17 17 16 16 17
20 19 20 20 19 19 19 19 19 19 19 19 19 19 19 19 19 19 18 18 18 18 18 18 18 18 18 18 18 18 17 17 17 17 17 17 17 17 17 17 16 16 17
20 19 20 20 20 20 19 19 19 19 19 19 19 19 19 19 19 19 18 18 18 18 18 18 18 18 18 18 18 17 17 17 17 17 17 16 17 17 17 17 17 17 17
20 19 19 20 20 20 19 19 19 19 19 19 19 19 19 19 19 18 18 18 18 18 18 18 18 18 18 18 17 17 17 17 17 17 17 16 16 17 17 17 17 17 17
20 19 20 20 20 19 19 19 19 19 19 19 19 19 19 19 18 18 18 18 18 18 18 18 18 18 18 17 17 17 17 17 17 17 17 16 16 17 17 17 17 16 16
20 19 20 20 19 19 19 19 19 19 19 19 19 19 18 18 18 18 18 18 18 18 18 18 18 18 17 17 17 17 17 17 17 17 16 16 16 17 17 17 17 16 16
20 19 19 20 19 19 19 19 19 19 19 19 18 18 18 18 18 18 18 18 18 18 18 17 17 18 17 17 17 17 17 17 17 17 16 16 16 17 17 17 17 16 16
20 19 19 19 19 19 19 19 19 19 19 18 18 18 18 18 18 18 18 18 18 18 17 17 17 17 17 17 17 17 17 17 17 17 16 16 17 17 17 17 17 16 16
20 19 18 18 19 19 19 19 18 18 18 18 18 18 18 18 18 18 18 18 18 17 17 17 17 17 17 17 17 17 17 17 18 17 17 16 17 17 17 16 16 16 16
19 19 18 18 18 18 18 18 18 18 18 18 18 18 18 18 18 18 17 18 18 18 17 17 17 17 17 17 17 17 17 17 18 17 17 16 17 17 17 16 16 16 16
19 19 19 18 18 18 17 18 18 18 18 18 18 18 17 17 17 17 17 18 18 18 17 17 17 17 17 17 17 17 17 17 17 17 17 17 17 17 17 17 17 16 16
18 18 18 18 18 18 17 17 17 17 17 17 17 17 17 17 17 17 17 17 17 17 18 17 17 17 17 17 17 17 17 17 17 17 17 17 17 17 17 17 16 16 16
18 18 18 18 18 18 17 17 17 17 17 17 17 17 17 17 17 17 17 17 17 17 17 17 17 17 17 17 17 17 17 17 17 17 17 17 17 17 17 17 16 16 16
18 18 17 17 17 17 17 17 18 17 17 17 17 17 17 17 17 17 17 17 17 17 17 17 17 17 17 17 17 17 17 17 17 17 17 17 17 16 16 16 16 16 16
18 17 17 18 18 18 18 18 17 17 17 17 17 17 17 17 17 17 17 17 17 17 17 17 16 16 16 17 17 17 17 17 17 17 17 17 17 16 17 16 16 16 16
17 17 17 18 18 18 18 18 17 17 17 17 17 17 17 17 17 17 17 17 17 17 17 17 17 16 17 17 17 17 17 17 16 16 16 17 17 17 16 16 16 16 16
17 17 17 18 18 18 18 18 17 17 17 17 17 17 17 17 17 17 17 17 17 17 16 16 16 16 17 17 17 17 17 17 17 16 16 16 16 17 17 16 16 16 16
17 17 17 17 17 18 18 17 17 17 17 17 17 17 17 17 17 17 17 17 17 17 16 16 17 17 17 17 17 17 17 16 16 16 16 16 16 16 16 16 16 16 16
18 18 18 17 17 17 17 17 17 17 17 17 17 17 17 17 17 17 17 17 17 17 16 17 17 17 17 17 17 17 17 17 16 16 16 16 16 16 16 16 16 16 16
18 18 18 17 17 17 17 17 17 17 17 17 17 17 17 17 17 17 17 16 17 17 16 16 16 16 17 17 17 17 17 17 17 17 16 16 16 16 16 16 16 16 16
18 17 17 17 17 17 17 17 17 17 17 17 17 17 17 17 17 17 17 16 16 17 16 16 16 16 17 16 17 17 17 17 17 17 17 17 17 16 16 16 16 16 16
18 18 18 18 18 17 17 17 17 17 17 17 17 17 17 17 17 17 17 17 17 16 16 16 16 17 17 17 17 18 18 18 17 17 17 17 17 17 16 16 16 16 16
17 18 18 18 18 17 17 17 17 17 17 17 17 17 17 17 17 16 16 17 16 16 16 16 16 16 17 17 17 17 18 19 18 18 17 17 16 17 17 16 16 16 16
18 18 18 17 18 17 17 17 17 17 17 17 17 17 17 17 17 17 16 16 16 16 16 16 16 16 16 17 17 17 17 17 18 18 18 17 17 17 17 17 17 16 16
18 17 17 17 17 17 17 17 17 17 17 17 17 17 17 17 17 16 16 16 16 16 16 16 16 16 16 17 17 17 17 17 17 18 18 18 18 17 17 17 17 17 16
18 18 17 17 17 17 17 17 17 17 17 17 17 17 17 17 17 16 16 16 16 16 16 16 16 16 16 16 17 17 17 17 18 18 18 18 18 18 17 17 17 17 16
Wind_Speed
15 18 19 16 15 16 17 17 18 18 18 17 16 15 15 14 13 12 11 11 11 11 11 11 11 11 12 13 14 14 14 14 15 16 16 16 16 16 15 14 15 17 17
18 20 20 18 16 16 17 17 18 18 17 17 16 15 14 13 12 11 11 11 11 11 11 12 12 13 13 14 14 14 14 14 15 15 16 16 16 15 13 12 14 16 17
20 21 21 18 18 17 17 17 17 17 17 16 16 15 14 13 12 11 11 11 11 11 12 13 13 13 14 14 14 14 14 14 14 13 12 14 15 14 14 15 17 16 16
21 21 20 20 19 18 17 17 17 17 17 16 15 14 13 12 12 11 11 11 11 11 12 13 13 13 13 14 14 14 14 13 12 9 10 13 14 14 15 15 15 15 16
19 20 21 21 20 19 18 17 16 16 16 15 15 14 13 12 11 11 11 11 11 12 12 13 13 13 13 14 14 14 14 12 7 5 12 12 13 14 15 15 14 15 15
19 20 23 22 20 19 18 17 16 16 15 15 14 13 12 12 11 11 11 11 11 12 12 13 13 13 13 13 13 13 12 9 8 10 11 11 13 13 14 14 14 14 14
19 20 23 22 21 19 18 17 16 16 15 14 14 12 12 11 11 11 11 11 12 12 12 12 13 12 12 12 12 12 10 5 6 10 10 11 13 13 13 13 13 13 13
18 19 22 21 20 19 18 17 16 15 14 14 13 12 11 11 11 12 12 12 12 12 12 12 12 11 11 12 11 11 8 5 9 9 10 12 13 13 12 12 12 12 13
16 17 19 20 19 18 17 16 16 15 14 13 12 12 12 12 12 12 12 11 12 12 11 11 11 11 11 11 11 10 6 2 6 8 9 11 12 11 12 11 12 12 12
14 16 17 18 18 18 17 16 15 14 14 13 12 12 12 12 12 12 12 11 11 11 11 10 10 10 10 10 10 9 7 6 6 8 8 12 11 11 11 11 11 11 11
13 14 15 15 16 16 16 15 14 14 13 12 12 11 11 11 11 11 11 11 11 11 11 10 10 10 10 10 9 9 8 4 6 6 8 13 10 10 10 10 10 10 10
16 14 13 14 14 14 13 14 12 11 12 11 10 11 8 7 7 9 12 11 11 11 11 10 9 10 9 10 11 10 5 5 5 6 10 12 9 9 9 9 9 9 9
16 14 13 13 13 13 11 12 10 9 9 9 10 9 8 7 7 8 9 10 10 11 9 10 9 7 5 4 5 5 3 4 4 6 11 11 8 8 9 9 9 9 9
16 15 14 13 12 11 10 9 9 9 8 8 9 9 8 6 6 6 5 7 7 6 5 6 5 4 4 4 3 4 4 3 4 6 10 10 8 8 8 8 8 8 8
15 16 15 13 12 11 9 8 9 8 8 8 8 8 7 6 5 6 5 4 5 6 7 5 5 5 4 5 4 4 4 4 3 5 9 10 8 8 8 8 8 8 8
15 16 14 14 13 11 10 8 8 8 8 8 8 8 7 6 6 5 5 5 4 5 4 4 5 5 4 4 3 4 4 5 5 3 7 10 9 8 8 8 8 8 8
15 15 15 14 13 12 11 10 8 8 9 7 7 8 8 7 6 5 5 5 4 5 5 5 5 4 4 4 4 4 3 3 5 4 4 6 9 10 9 8 8 8 8
14 15 15 13 13 12 10 9 7 8 8 7 7 8 9 7 7 5 4 5 5 5 5 4 5 4 4 4 4 3 4 4 4 5 5 5 5 7 10 10 9 9 9
14 15 15 13 13 12 11 8 8 7 7 7 7 7 8 8 8 6 4 4 6 5 5 5 5 4 4 3 4 4 3 4 4 5 4 5 5 5 7 11 11 10 10
14 14 14 14 13 12 9 8 7 7 7 8 7 7 8 8 8 7 5 5 6 5 5 4 4 3 3 3 3 3 3 3 4 4 5 5 6 7 7 7 9 11 12
13 13 13 14 14 11 9 9 8 8 8 7 7 9 9 9 8 7 5 6 5 5 5 6 5 6 5 3 3 3 4 4 4 4 4 4 5 6 6 7 7 6 9
13 13 14 13 13 13 10 8 7 7 6 6 6 8 9 10 9 8 6 6 6 4 6 6 5 4 4 4 4 3 3 4 5 5 4 5 5 6 7 8 7 6 7
13 13 13 13 13 13 11 9 7 6 5 6 7 7 9 10 10 8 8 7 6 7 6 7 6 7 5 5 4 3 3 2 3 4 5 5 4 5 5 5 8 8 8
13 13 12 12 12 12 12 11 11 9 8 9 8 7 8 9 10 10 8 7 7 6 6 7 6 5 6 5 4 3 3 3 3 2 5 5 5 5 5 5 6 7 8
12 12 11 12 12 12 12 12 11 9 8 7 8 8 8 8 9 9 9 8 7 6 6 5 5 6 6 6 5 4 4 4 5 4 2 3 5 5 5 5 5 5 6
11 11 11 12 12 12 12 11 11 11 9 9 10 9 9 8 8 9 9 8 8 7 7 7 6 7 5 5 5 5 5 4 5 4 3 4 3 3 4 4 5 5 6
Wind_Direction
153 145 144 144 139 135 133 135 136 139 138 137 136 134 132 129 124 121 117 112 108 105 105 106 107 111 114 112 112 110 110 110 110 108 107 106 105 105 107 113 115 105 106
148 144 147 146 142 137 134 133 134 137 138 136 136 135 133 130 126 122 117 112 108 106 105 105 106 109 112 113 113 113 111 111 111 112 114 109 105 104 103 97 91 104 110
146 144 150 147 143 139 135 134 135 136 137 136 135 134 132 130 125 121 119 114 111 109 108 108 108 110 112 114 114 113 112 111 113 121 131 115 108 106 103 99 101 108 110
147 148 151 145 143 140 138 136 136 136 136 136 135 134 132 130 126 124 120 116 113 112 111 112 112 113 114 113 112 111 109 111 120 151 122 109 110 108 109 108 109 110 110
147 147 144 148 145 143 141 139 140 139 138 138 137 136 135 132 129 126 122 119 115 113 113 114 114 115 114 112 111 111 111 115 141 141 99 101 105 111 111 111 111 109 110
149 149 147 152 148 146 145 145 144 142 141 140 139 138 136 133 130 126 123 120 117 115 115 116 116 117 117 115 114 114 116 137 170 104 104 108 109 114 114 113 111 110 111
154 150 149 153 150 148 148 148 147 145 144 142 139 138 135 132 129 125 121 120 117 116 117 119 118 119 120 118 117 118 125 162 115 107 108 105 107 115 115 114 112 111 111
155 150 147 153 152 151 151 151 149 148 146 143 141 140 136 130 126 123 122 121 119 117 119 122 121 121 121 121 121 122 136 194 121 110 108 106 111 118 116 117 115 114 113
156 151 152 157 156 154 155 154 151 149 146 144 142 139 135 131 127 123 122 122 121 120 120 122 123 124 123 124 125 125 134 261 122 117 114 109 118 120 121 120 119 117 116
159 157 157 162 159 160 158 156 153 151 147 145 142 140 137 134 130 131 133 123 122 122 123 124 125 125 126 127 128 131 151 209 123 126 116 116 125 125 125 125 123 122 120
164 162 163 161 161 161 157 153 157 153 151 150 148 144 156 154 142 147 120 125 127 127 126 125 126 129 137 136 138 150 179 162 120 109 102 116 134 133 131 131 130 129 126
168 168 165 162 162 161 157 154 161 161 158 165 155 157 161 143 141 129 122 129 130 130 131 127 132 155 182 151 151 182 173 142 136 126 114 128 141 142 142 139 139 139 135
168 169 168 166 166 164 157 157 161 160 160 166 158 159 154 155 151 141 144 144 146 155 151 145 170 176 163 124 148 153 141 149 129 123 124 141 149 150 150 149 148 146 144
170 171 171 167 164 165 162 161 163 162 164 165 160 168 162 162 159 146 155 151 159 156 149 162 162 154 152 151 149 134 156 173 142 122 129 149 157 160 161 160 160 158 157
174 172 171 168 166 165 165 171 167 164 164 162 162 168 170 167 165 153 148 155 165 153 161 166 161 155 166 173 171 155 156 138 136 135 132 153 167 170 170 174 175 175 175
178 172 171 171 169 170 172 174 167 165 163 165 169 166 178 171 162 164 161 165 164 169 157 167 159 168 182 168 171 156 166 154 146 159 144 155 171 180 182 182 184 186 187
177 172 172 173 174 177 179 175 171 167 167 170 163 166 179 181 166 175 166 175 168 162 159 180 168 179 183 174 171 170 168 172 157 169 163 163 169 180 191 194 197 197 198
176 175 177 176 176 179 178 176 169 170 168 170 171 175 181 179 175 185 177 175 167 176 179 176 194 185 183 183 174 190 169 166 173 180 181 182 177 174 183 193 203 204 206
176 174 177 176 176 179 176 171 169 169 174 177 181 182 180 185 186 193 187 164 185 185 187 198 175 202 187 185 182 179 189 186 181 188 185 189 183 189 185 176 196 206 211
176 175 176 176 177 177 173 169 170 173 181 184 186 186 185 190 192 197 189 182 200 194 191 201 172 206 208 198 217 166 194 190 204 191 203 189 190 199 201 191 195 201 208
176 174 174 178 177 175 174 176 174 180 184 184 188 187 192 197 192 200 198 180 208 200 203 198 197 187 202 198 207 198 197 204 206 202 215 209 199 204 199 201 218 214 198
177 178 179 181 177 178 178 180 178 176 187 185 188 186 196 200 197 195 201 200 199 196 203 209 212 215 196 196 223 212 206 194 208 204 202 211 214 205 208 207 209 215 237
182 185 186 183 180 181 175 175 172 169 182 186 192 193 199 201 201 204 199 210 199 208 198 206 206 217 211 196 224 246 254 226 191 182 202 206 212 218 221 213 218 211 221
186 186 182 179 181 179 178 183 182 186 194 195 192 191 192 197 198 199 200 203 208 212 194 206 205 219 226 214 198 240 280 327 276 189 191 192 199 216 229 230 219 210 220
183 180 177 177 179 180 184 184 189 198 201 194 191 188 194 191 196 199 199 201 204 211 201 207 193 221 220 228 219 216 219 223 250 266 219 201 200 205 205 221 230 225 218
179 176 175 177 179 181 184 189 196 199 198 193 192 189 194 191 195 198 198 198 201 203 197 202 203 207 227 234 242 232 224 223 231 239 239 227 219 207 210 223 229 224 223
Height
1517 1518 1519 1522 1525 1528 1530 1532 1534 1535 1537 1539 1540 1541 1543 1544 1545 1546 1547 1548 1549 1550 1551 1551 1552 1553 1554 1555 1555 1556 1556 1557 1558 1559 1560 1560 1561 1562 1563 1564 1565 1565 1565
1516 1518 1520 1523 1526 1529 1531 1533 1535 1537 1539 1540 1542 1543 1545 1546 1547 1548 1549 1550 1551 1551 1552 1553 1554 1555 1556 1557 1557 1558 1559 1560 1561 1561 1562 1563 1564 1565 1565 1566 1567 1567 1568
1516 1518 1521 1524 1527 1530 1532 1534 1536 1538 1540 1542 1543 1545 1546 1547 1549 1550 1551 1551 1552 1553 1554 1555 1556 1557 1558 1559 1559 1560 1561 1562 1563 1564 1566 1567 1566 1567 1568 1568 1569 1570 1571
1517 1519 1522 1525 1528 1531 1533 1535 1537 1539 1541 1543 1545 1546 1548 1549 1550 1551 1552 1553 1554 1555 1556 1557 1558 1559 1560 1561 1562 1563 1564 1565 1566 1567 1570 1570 1570 1569 1570 1571 1571 1572 1573
1518 1521 1523 1526 1529 1532 1534 1537 1538 1540 1542 1544 1546 1548 1549 1550 1552 1553 1554 1555 1556 1557 1558 1559 1560 1561 1562 1563 1564 1565 1566 1567 1568 1571 1572 1572 1572 1572 1573 1573 1574 1575 1576
1519 1522 1523 1527 1530 1533 1535 1538 1540 1542 1544 1545 1547 1549 1550 1552 1553 1554 1555 1556 1557 1558 1559 1561 1562 1563 1564 1565 1566 1567 1568 1570 1572 1574 1574 1574 1574 1574 1575 1576 1577 1577 1578
1521 1524 1524 1528 1531 1534 1537 1539 1541 1543 1545 1547 1548 1550 1552 1553 1554 1555 1556 1558 1559 1560 1561 1562 1564 1565 1566 1567 1568 1569 1570 1572 1575 1576 1576 1576 1576 1576 1577 1578 1579 1579 1580
1522 1525 1525 1528 1532 1535 1538 1540 1542 1544 1546 1548 1550 1551 1553 1554 1555 1557 1558 1559 1560 1562 1563 1564 1565 1567 1568 1570 1570 1571 1572 1574 1577 1578 1578 1578 1577 1578 1579 1580 1581 1582 1582
1523 1525 1527 1530 1533 1535 1538 1541 1543 1545 1547 1549 1551 1552 1554 1555 1557 1558 1559 1560 1562 1563 1565 1566 1568 1569 1571 1571 1572 1573 1574 1575 1580 1579 1580 1580 1579 1580 1581 1582 1583 1584 1584
1523 1526 1528 1531 1533 1536 1539 1542 1544 1546 1548 1550 1552 1554 1555 1557 1558 1559 1561 1562 1563 1564 1566 1568 1569 1571 1572 1573 1574 1575 1576 1577 1581 1581 1582 1581 1581 1582 1583 1584 1585 1585 1586
1522 1526 1528 1531 1534 1537 1540 1542 1545 1547 1549 1551 1553 1554 1556 1559 1560 1561 1562 1563 1564 1566 1567 1569 1571 1572 1574 1575 1576 1577 1578 1581 1582 1583 1583 1582 1582 1583 1584 1585 1586 1587 1588
1521 1524 1528 1531 1534 1537 1540 1542 1545 1548 1550 1552 1554 1556 1558 1560 1562 1563 1563 1564 1566 1567 1569 1571 1572 1574 1576 1578 1577 1578 1581 1582 1583 1584 1583 1583 1583 1584 1585 1586 1587 1588 1589
1519 1523 1526 1530 1533 1536 1539 1542 1545 1548 1550 1553 1555 1557 1558 1561 1562 1564 1565 1566 1567 1569 1571 1571 1574 1577 1578 1579 1580 1581 1581 1583 1584 1585 1583 1583 1584 1585 1586 1587 1588 1589 1590
1518 1521 1525 1528 1532 1535 1539 1542 1544 1548 1550 1553 1555 1557 1559 1561 1563 1565 1565 1567 1569 1570 1572 1574 1575 1577 1578 1579 1580 1581 1582 1583 1584 1585 1583 1584 1585 1586 1587 1588 1589 1590 1591
1516 1519 1523 1526 1530 1534 1537 1541 1545 1547 1550 1553 1555 1557 1559 1561 1563 1564 1566 1567 1570 1571 1572 1573 1575 1576 1578 1579 1581 1581 1582 1583 1584 1585 1584 1584 1585 1586 1587 1588 1589 1590 1591
1514 1517 1521 1525 1529 1533 1537 1540 1544 1547 1549 1552 1555 1557 1558 1561 1563 1564 1566 1567 1570 1571 1573 1574 1575 1576 1578 1579 1580 1581 1582 1583 1583 1584 1585 1585 1585 1586 1587 1588 1589 1590 1591
1513 1516 1520 1524 1528 1532 1536 1539 1543 1546 1549 1552 1554 1556 1558 1560 1562 1564 1566 1567 1569 1570 1571 1573 1574 1576 1578 1579 1580 1581 1582 1583 1584 1584 1585 1586 1586 1586 1586 1587 1588 1589 1590
1512 1515 1519 1523 1527 1531 1535 1538 1542 1545 1548 1550 1553 1555 1557 1560 1561 1563 1565 1568 1568 1571 1572 1573 1575 1577 1578 1579 1580 1581 1581 1582 1583 1584 1585 1585 1586 1587 1586 1587 1588 1588 1589
1510 1513 1518 1522 1525 1530 1533 1537 1540 1543 1546 1549 1552 1555 1556 1559 1561 1563 1565 1567 1568 1570 1572 1573 1575 1576 1577 1578 1579 1580 1581 1582 1582 1583 1584 1584 1585 1586 1586 1586 1586 1587 1588
1509 1512 1516 1520 1524 1528 1532 1535 1538 1541 1545 1547 1550 1553 1555 1558 1560 1562 1564 1565 1568 1570 1571 1572 1573 1574 1576 1577 1579 1580 1580 1581 1582 1582 1583 1584 1584 1585 1586 1586 1586 1586 1587
1508 1511 1515 1518 1521 1525 1529 1533 1536 1540 1543 1546 1549 1551 1554 1556 1559 1560 1564 1565 1567 1569 1570 1572 1573 1574 1575 1577 1578 1579 1580 1580 1581 1581 1582 1583 1583 1584 1584 1585 1585 1586 1586
1506 1510 1513 1516 1520 1523 1527 1531 1535 1539 1542 1545 1547 1549 1552 1555 1557 1560 1561 1564 1566 1567 1568 1570 1571 1574 1575 1576 1577 1578 1579 1580 1579 1580 1580 1581 1582 1582 1583 1584 1584 1584 1585
1505 1508 1512 1515 1518 1522 1525 1530 1534 1537 1540 1543 1545 1548 1550 1553 1555 1558 1560 1562 1564 1566 1567 1568 1570 1572 1574 1575 1576 1577 1577 1577 1578 1579 1579 1580 1580 1581 1582 1582 1582 1583 1583
1504 1506 1510 1513 1517 1520 1524 1528 1531 1534 1537 1541 1544 1546 1548 1551 1553 1556 1558 1560 1562 1564 1565 1567 1569 1571 1572 1574 1575 1575 1577 1576 1577 1577 1578 1578 1579 1579 1580 1581 1581 1581 1581
1502 1505 1508 1511 1515 1519 1523 1526 1529 1533 1536 1539 1542 1544 1546 1549 1551 1554 1556 1558 1559 1562 1564 1565 1567 1568 1571 1572 1573 1575 1575 1576 1577 1577 1577 1577 1578 1578 1578 1579 1579 1580 1580
1500 1503 1506 1510 1513 1517 1520 1524 1527 1530 1533 1537 1539 1542 1544 1547 1549 1551 1553 1555 1557 1560 1561 1563 1564 1566 1568 1570 1571 1573 1574 1575 1575 1576 1576 1576 1576 1577 1577 1577 1577 1578 1578